Showing default

O3B FM12, 40350

Orbit data source: Space-Track

O3B FM12, 40350 is a payload satellite owned by O3B (JE) that was launched on Thu, 18 Dec 2014 UTC via a SOYUZ-ST-B launch vehicle from the French Guiana (FRGUI). Payload-class satellites include a variety of spacecraft equipped with specific instruments for various scientific and technological missions. These include communications satellites like Starlink; space stations such as the ISS; scientific satellites like the Hubble; Earth observation satellites from companies like Planet Labs, Umbra, and HawkEye 360; GPS; miniature CubeSats for education and research; and military/defense satellites.

Loading next visibility...
Identifier
40350, 2014-083C
Orbit
Active
Country
Flag of UnknownUnknown / O3B
Related business
Manufacturer
Thales Alenia
Mission
Operational Commercial Communications
Bus & Motor
PRISMA?, LS-400 AOCS?
Mass
700 kg wet, ~500 kg dry
Launch date (UTC)
2014-12-18 (11 years ago)
Launch vehicle
SOYUZ-ST-B
Launch site
French Guiana (FRGUI)
Object type
Payload
Rocket body
Debris
Shape & HBR
Trap Box + 2 Pan, 6.0 m
Radar Cross Section
21.980 m², Large (>1 m²)

Expand to show TLE details & history
Last TLE update: 6 hours ago

TLE from 6 hours ago
0 O3B FM12
1 40350U 14083C   26125.42251218 -.00000022  00000-0  00000+0 0  9993
2 40350   0.0567 358.2525 0002549  42.6547 319.1133  5.00116009207787
Epoch: 2026-05-05T10:08Z
TLE epoch observation values (Epoch: 2026-05-05T10:08:25.052Z)
Latitude
0.00602°
Longitude
-15.40201°
Altitude
8,061.576 km
Speed
5.255 km/s
True Right ascension
23h 59m 59s
True Declination
0° 00' 22"
Sunlit
Object was in daylight at epoch
Visualization orbit readout
Latitude
Unknown
Longitude
Unknown
Altitude
Unknown
Speed
Unknown
Apparent Right ascension
Unknown
Apparent Declination
Unknown
Sunlit
N/A
Visualization observer readout
Local Sidereal Time
23:48:46
Azimuth
Unknown
Elevation
Unknown
Doppler factor
Unknown
Orbital elements
Apogee altitude
8,072.621 km
Perigee altitude
8,065.256 km
Semi-major axis
14,447.076 km
Eccentricity
0.00025
Inclination
0.0567°
RAAN
358.2525°
Arg. of periapsis
42.6547°
True anomaly
319.09418°
Mean anomaly
319.1133°
Eccentric anomaly
319.10374°
Mean motion
1.24989 °/min
Orbital period
288.02 mins
BSTAR
0
Loading maneuver chart data...
Computing Atmospheric mass density...
Loading historical data...
Loading historical data...
Loading historical data...
Loading historical data...
Loading historical data...
Loading historical data...
Loading historical data...
Other satellites on launch #83 in the year 2014 (2014-12-18 UTC)

Documentation

Showing up to 5 results
|